Humidity-temperature Sensor

Selected Measurement Type: Relative Humidity

 
Relative Humidity [%]     6 entries per hour
Showing data from 12/7/2022 (19:00:00 Z) to 12/6/2022 (00:01:00 Z)
Previous Next [ Day | 3-Days | 7-Days ]
First Last
Prev [ Day | 3-Days | 7-Days ] Next
First Last

Start Time:     :
End Time:     :     
Time (in GMT) :00 :50 :40 :30 :20 :10
Previous Next [ Day | 3-Days | 7-Days ]
First Last
Prev [ Day | 3-Days | 7-Days ] Next
First Last


123 => good data
MM => data is determined as missing
-- => data not received/configured
Back to Top Back to Top
12/7/2022 19:00 to 18:10 94.87 94.29 93.86 93.59 93.51 92.61
12/7/2022 18:00 to 17:10 91.31 89.28 88.60 88.97 89.07 88.85
12/7/2022 17:00 to 16:10 88.85 89.13 89.26 89.22 89.30 89.53
12/7/2022 16:00 to 15:10 89.48 89.85 90.49 91.68 92.79 93.82
12/7/2022 15:00 to 14:10 94.74 94.93 94.97 94.70 94.74 93.96
12/7/2022 14:00 to 13:10 93.02 91.31 89.44 89.09 89.09 89.28
12/7/2022 13:00 to 12:10 89.38 89.40 89.44 89.50 89.50 89.36
12/7/2022 12:00 to 11:10 89.75 89.79 89.55 89.75 90.51 91.11
12/7/2022 11:00 to 10:10 91.37 91.66 91.87 92.18 92.14 92.44
12/7/2022 10:00 to 9:10 93.02 93.43 93.37 93.31 93.08 92.92
12/7/2022 09:00 to 8:10 93.06 93.08 93.70 93.80 93.92 93.57
12/7/2022 08:00 to 7:10 93.70 93.78 93.61 93.43 93.14 93.76
12/7/2022 07:00 to 6:10 93.98 94.17 93.84 93.47 92.92 92.57
12/7/2022 06:00 to 5:10 91.54 89.34 89.40 89.55 90.02 89.94
12/7/2022 05:00 to 4:10 90.08 90.33 90.57 90.90 91.29 91.33
12/7/2022 04:00 to 3:10 90.82 90.06 89.87 89.38 88.95 88.97
12/7/2022 03:00 to 2:10 89.46 90.08 90.53 90.45 90.29 89.63
12/7/2022 02:00 to 1:10 88.87 89.01 89.34 89.16 89.18 89.32
12/7/2022 01:00 to 0:10 88.87 88.58 88.64 89.20 89.36 89.40
12/7/2022 00:00 to 23:10 88.93 89.26 89.11 89.38 89.36 89.22
12/6/2022 23:00 to 22:10 88.40 88.40 88.19 88.37 88.68 88.31
12/6/2022 22:00 to 21:10 88.00 87.70 87.41 87.00 87.70 88.72
12/6/2022 21:00 to 20:10 89.26 89.65 89.90 90.78 90.78 90.76
12/6/2022 20:00 to 19:10 90.96 90.68 90.63 90.78 90.86 91.81
12/6/2022 19:00 to 18:10 92.11 91.97 90.57 89.30 89.50 88.46
12/6/2022 18:00 to 17:10 87.41 87.53 87.94 88.35 88.56 88.19
12/6/2022 17:00 to 16:10 88.33 88.64 89.11 89.90 91.23 91.00
12/6/2022 16:00 to 15:10 91.11 90.80 90.33 90.35 90.78 91.11
12/6/2022 15:00 to 14:10 91.05 91.03 90.98 90.78 90.74 90.59
12/6/2022 14:00 to 13:10 91.15 90.80 89.81 89.92 89.73 89.71
12/6/2022 13:00 to 12:10 89.85 90.16 90.16 90.04 90.31 90.57
12/6/2022 12:00 to 11:10 90.80 90.61 90.70 90.41 90.33 89.85
12/6/2022 11:00 to 10:10 89.81 89.50 89.24 89.50 89.32 89.30
12/6/2022 10:00 to 9:10 90.02 90.55 90.35 90.08 89.73 89.48
12/6/2022 09:00 to 8:10 89.63 90.00 90.33 90.53 90.88 91.21
12/6/2022 08:00 to 7:10 91.17 91.33 91.62 91.77 91.40 90.35
12/6/2022 07:00 to 6:10 90.16 90.08 90.04 90.08 90.06 90.12
12/6/2022 06:00 to 5:10 89.98 89.57 89.40 89.40 89.11 88.99
12/6/2022 05:00 to 4:10 89.38 89.13 88.44 88.42 88.74 88.97
12/6/2022 04:00 to 3:10 88.91 89.01 89.55 89.83 89.79 89.50
12/6/2022 03:00 to 2:10 89.28 89.18 89.22 89.55 88.72 88.07
12/6/2022 02:00 to 1:10 88.13 88.58 88.62 88.31 88.35 88.27
12/6/2022 01:00 to 0:10 88.89 89.07 88.87 89.03 89.24 89.42